Northwest Arkansas Regional Airport Fayetteville,Springdale, US
ICAO: KXNA
IATA: XNA
Category: Medium
Scheduled Services: No

Elevation: 1287 ft
TransAlt. 18000 ft.

Airport Communications:
RAZORBACK APP/DEP:121
ASOS:119.425
CTAF:127.1
GND:121.9
JONESBORO RDO:122.55
TWR:127.1
UNICOM:122.95

KXNA Zoom In..

If Map Doesn't Load, Click Here

Runways:

(A) RW 16 length 8800 ft width 150 ft
ILS 110.55 / hdg 156

(B) RW 17 length 8800 ft width 150 ft
ILS 111.75 / hdg 156

(C) RW 34 length 8800 ft width 150 ft
ILS 110.55 / hdg 336

(D) RW 35 length 8800 ft width 150 ft
ILS 111.75 / hdg 336

Location; KXNA
Day. 23 / Time. 21.53 Zulu
* Altimeter: 29.97
* Temperature: 23° c. 73.4°f.
* Wind from: 090° Speed 06 kn.
Dewpoint: 17° c.
Visibility: 10 Statute Miles.
Clouds: Overcast 2300 ft.

KXNA 232153Z 09006KT 10SM OVC023 23/17 A2997 RMK AO2 SLP137 T02280167


Wind From 090°
Speed 06 kn.

 
 
jpsmedia.com for Web Design worldairports.se 2018   terms of use